CAPE
1331 1556 1393 1354 1428 1468 1441 1514 1359 1269 1243 1188 1082 1007 1059 1141 1107 1199 1664 1781 1912 2047 2391 2541 2693 2699 2642 2931 2971 3291 3799 3686 3697 3816 3929 3987 3977 3870 3740 4044 3888 3595 3851 3883 3588 3924 4011 3819 3805 3990 3962 3650 3549 3222 3064 3419 3924 3914 3749 3582 3148 3095 2916 3385 3494 3628 4113 3859 3351 3406 3416 3754 3418 4495 4120 3784 3895 4180 4274 4719 5165 4569 3883 3896 3904
1322 1419 1415 1395 1361 1376 1288 1262 1300 1241 1111 1090 1015 967 982 1034 1079 1190 1237 1481 1701 1686 2047 2194 2488 2581 2518 2815 3142 3310 3802 3890 3614 3599 3838 3826 3879 3572 3671 3964 4027 3798 3977 3913 4201 3935 4087 4104 3864 3861 4231 3786 3521 3156 3029 2813 2979 3232 3994 3522 3488 3670 3230 3192 3618 3819 3840 4178 4570 4149 3997 4005 3527 4387 4376 4236 3994 4129 4330 4541 3840 3682 3701 3619 3569
1082 1451 1518 1501 1459 1338 1272 1284 1242 1198 1055 1001 880 813 864 913 986 1004 804 926 1400 1453 1691 1756 2369 2597 2487 2754 3239 3295 3694 3660 3457 3551 3625 3745 3696 3296 3219 3542 3626 3532 3686 3851 3600 3871 3891 3884 3568 3678 3785 3746 3841 3359 3072 3072 2985 3340 3337 3484 3605 3496 3897 3391 3448 3695 3850 4034 4355 3682 3696 4263 4200 3977 4155 4055 4124 4589 5006 4429 3706 3601 4020 3816 3469
1072 1400 1452 1391 1393 1376 1375 1242 1054 1026 934 910 851 788 693 707 846 757 708 676 924 1331 1422 1608 2192 2524 2440 2655 2930 2997 3289 3348 3356 3473 3687 3672 3592 3689 3669 3624 3444 3406 3370 3348 3315 3529 3322 3431 3217 3235 3608 3758 3813 3728 3662 3426 3475 3703 3529 3784 4026 3760 4095 4274 3937 3728 3853 3927 4021 4236 3878 4010 4057 4203 4230 4119 4288 4409 4508 4262 4321 4131 3724 3396 3215
1033 1208 1247 1229 1218 1305 1270 1158 1047 964 880 820 819 746 662 573 602 582 566 526 610 877 1339 1550 1862 2274 1914 2205 2519 2716 2918 3095 3267 3086 3176 3287 3476 3297 3360 3617 3605 3564 3483 3509 3364 3443 3399 3212 3023 3286 3659 3615 3540 3539 3318 3800 3676 3461 3348 3564 3802 3669 3984 4033 4154 4255 4023 3921 3909 4332 4606 4356 4413 4487 4236 3925 4081 4404 4929 5087 3978 3855 4202 3640 3195
942 1116 1074 1079 1237 1275 1288 1136 1014 942 869 811 761 723 668 584 512 526 480 506 566 595 949 1167 1375 1838 1925 1908 2170 2572 2794 2974 3204 3146 2891 3039 3253 3212 3213 3450 3239 3425 3458 3336 3497 3510 3344 3368 3300 3296 3332 3239 3051 3239 3598 3647 3696 3470 3560 3600 3651 3748 3955 4110 4268 4278 4356 4218 4216 4139 4396 4109 3915 4399 4399 4062 3912 3883 3970 4541 4824 4405 4351 3951 3543
1056 1118 1100 1036 1266 1272 1268 1173 1081 920 912 804 745 707 629 580 510 465 458 442 477 447 558 922 1260 1488 1902 1956 1892 2389 2702 2689 3021 3165 2992 2997 3112 3268 2870 3094 3176 3246 3216 3078 3031 3167 3289 3256 3400 3450 3399 3469 3276 3246 3496 3697 3242 3178 3567 3741 3750 3756 3661 3836 4112 4174 4152 4042 3995 4248 4220 4152 4094 3782 4257 4422 4106 4146 4087 4000 4097 4803 4801 4247 4127
1144 1229 1126 1143 1313 1344 1263 1209 1147 1063 952 966 872 718 620 552 585 510 503 448 362 356 389 564 1041 1133 1460 1714 1936 2176 2578 2585 2840 3022 3011 2887 2901 3011 2966 2876 2781 2924 2900 2973 2843 2617 2831 3064 2950 3176 3411 3566 3565 3506 3482 3308 3504 3378 3415 3758 3711 3688 3481 3554 3876 3770 3813 3779 3812 3606 3710 4030 4284 4251 4308 4480 4392 4616 4797 3934 3786 4139 4389 4930 4194
1140 1079 1129 1292 1450 1522 1445 1274 1253 1198 1060 1075 930 747 624 582 574 596 646 527 345 295 301 299 574 859 1048 1477 1646 1809 1940 2176 2319 2603 2866 2957 2755 2559 2787 2851 2810 2787 2950 2711 2720 2931 2686 2573 2652 2836 3304 3630 3199 3099 3067 3179 3364 3501 3805 4021 3758 3711 3723 3636 3843 3834 3907 3841 3746 3939 4071 4061 4100 4245 4028 4164 4182 3748 3794 4144 4152 4180 4530 4323 4561
840 823 858 1359 1536 1573 1647 1435 1303 1323 1201 1108 1080 842 648 576 471 539 542 539 499 503 436 399 354 572 826 1262 1466 1520 1612 1808 1970 1508 1847 2482 2699 2212 2386 2824 2759 2598 2856 2892 2586 2676 2742 2575 2309 2971 3013 2883 2624 2370 2193 2165 2268 2653 3267 4076 3946 3731 3674 3701 3729 3803 3795 3635 3326 3319 3291 3114 2867 3347 3771 3791 3859 4136 4130 4479 4601 4378 4531 4671 4655
877 885 865 1303 1380 1589 1771 1602 1452 1398 1400 1292 1224 1014 764 568 473 526 499 514 541 753 734 537 372 312 417 611 898 974 1079 1109 644 103 749 1019 1687 2349 2332 2661 2906 2836 2599 2925 2875 2422 2558 2859 2876 3066 3235 2726 2564 2130 2145 2081 2099 2117 2092 2357 3133 3614 3654 3644 3645 3663 3701 3517 3210 3316 3177 3322 3288 3145 3290 3339 3563 3696 4001 4164 4195 4156 4316 4258 4136
888 913 924 1315 1543 1717 1497 1551 1549 1533 1493 1346 1337 1227 931 743 615 647 522 416 705 492 442 490 600 443 377 431 458 597 784 567 2 0 0 0 416 1406 1754 1882 1892 2194 2350 2151 2430 2520 2418 2484 2844 2861 3159 3351 3304 3641 2674 2203 2140 2140 2165 2198 2183 2163 2372 3056 3464 3637 3826 3681 3401 3179 2980 2938 3234 3578 3123 2960 3847 4015 4370 4385 4339 4141 4084 4037 4041
904 907 915 1346 1572 1626 1664 1694 1751 1644 1547 1452 1421 1319 1141 990 850 547 564 575 571 538 536 364 520 537 390 533 427 385 570 391 0 0 0 0 0 253 790 1162 1254 1432 1728 2177 2076 2416 2794 2911 2809 2968 2708 2825 3033 3191 3822 3785 2650 2209 2174 2174 2144 2136 2126 2098 2144 2833 3113 3476 3649 3351 3255 3408 3538 3519 3567 3770 3890 3938 4041 3990 4408 4488 4200 3987 3995
921 902 1329 1477 1604 1640 1800 1699 1664 1672 1739 1678 1511 1290 1151 1106 705 634 674 704 738 766 759 750 763 731 705 580 542 398 305 193 0 0 0 0 0 54 570 673 1103 1317 1506 1786 1983 2300 2868 3039 2919 3023 3189 3210 3226 3250 3457 3747 4042 3472 2723 2368 2605 2462 2032 2038 2125 2127 2118 2482 2989 3373 3735 3877 3717 3704 3748 4042 3937 3690 3692 3835 4018 4147 3888 3755 3965
1994 1078 1418 1441 1422 1569 1784 1821 1796 1843 1872 1780 1661 1481 1350 1227 796 662 728 783 817 858 892 910 925 961 978 972 974 943 894 757 146 0 0 0 0 0 381 651 797 1168 1497 1778 2160 2311 2572 2955 2912 2695 3050 3426 3375 3281 3296 3557 3777 3718 3699 3483 3220 3083 3174 2866 2321 2025 1929 1937 2561 2996 3359 3618 3903 4026 3996 4085 4050 3872 3800 3842 3950 3956 3701 3588 3461
1995 1921 1449 1323 1335 1581 1716 1831 1835 1892 1863 1800 1772 1664 1598 1592 1426 854 753 797 852 886 939 964 1005 1034 1069 1144 1181 1207 1235 1216 1158 1062 686 551 0 0 253 864 969 1048 1384 1774 2102 2508 2629 2682 2883 2942 2900 3184 3222 2512 2593 3147 3376 3508 3537 3429 3277 3213 3004 2856 2581 2293 2416 2553 2681 2742 2734 2786 2783 3418 3456 3272 3417 3835 3695 3287 2858 2982 3190 3407 3561
1138 1247 1752 1445 1609 1704 1744 1657 1753 1758 1800 1805 1856 1750 1740 1772 1656 1429 1112 879 924 959 1002 1034 1074 1128 1191 1230 1256 1300 1344 1366 1352 1333 1280 1158 908 271 400 772 1124 1178 1332 1774 2138 2410 2534 2606 2798 2767 2854 3117 2964 2384 1980 1878 2823 3040 3225 3120 3034 2797 2809 2920 2536 2156 1890 1710 1830 1935 1965 1919 1857 1761 1677 1664 1654 2383 2891 2638 2930 3407 3487 3336 3194
1311 1208 1348 1683 2499 2024 2078 2032 1885 1825 1937 1962 1934 1757 1720 1706 1601 1546 1388 1084 991 1010 1030 1080 1151 1250 1308 1367 1355 1416 1488 1522 1532 1540 1525 1461 1305 1087 808 854 1074 1358 1535 1686 1965 2346 2519 2303 2598 2810 2654 2775 2576 2218 1896 1625 2436 2752 3006 2965 2926 2906 2982 2724 2358 2296 1903 1758 1635 1561 1516 1500 1478 1495 1538 1564 1568 1560 1934 2496 2772 2995 3003 3236 3128
1176 1264 1248 1425 1623 2757 2360 2237 2141 1910 1873 1956 1786 1834 1839 1861 1714 1682 1539 1116 1161 1168 1205 1170 1258 1350 1410 1449 1499 1522 1560 1615 1718 1853 1876 1850 1762 1586 1282 945 1058 1358 1488 1684 1965 2077 2316 2249 2118 2291 2534 2570 2296 2052 1789 1550 2239 2649 2870 2951 2840 2876 2788 2737 2738 2787 3028 2436 2059 1712 1545 1422 1427 1456 1492 1504 1480 1491 1522 2198 2592 2794 3018 3155 3243
745 1055 1394 1377 1439 1673 2758 2799 2529 2052 1911 2025 1929 2018 2152 2144 2156 2112 1756 1335 1254 1257 1232 1180 1262 1364 1464 1508 1555 1578 1621 1721 1877 2059 2088 2107 2026 1913 1727 1344 1022 1187 1385 1428 1700 1957 2063 2320 2292 1525 1550 1744 1936 1866 1690 1503 2022 2535 2666 2714 2828 2945 2845 2907 3059 2980 3246 3218 3060 3008 3052 2928 2922 2672 2581 2416 1579 1552 1575 1668 2368 2742 3158 3367 3274
993 1194 1367 1464 1468 1515 1633 2429 2814 2571 2310 2350 2308 2256 2273 2352 2319 2156 1942 1609 1449 1454 1392 1306 1234 1352 1469 1510 1530 1608 1665 1768 1904 2024 2188 2249 2228 2150 1970 1676 1353 1213 1405 1483 1432 1518 1909 2150 2113 1958 1472 1342 1405 1514 1498 1440 1375 2173 2704 2826 2802 2854 2750 2975 2895 3004 2841 2814 2818 2860 2872 2954 2944 2856 2846 2990 2916 2294 1699 1694 1932 2568 3031 3219 3182
920 1255 1361 1444 1557 1584 1626 1733 1936 2370 2608 2660 2704 2781 2693 2458 2495 2542 2264 2197 2220 2136 2068 1879 1760 1664 1604 1418 1400 1401 1557 1746 1903 2064 2275 2419 2404 2351 2223 1919 1622 1310 1392 1497 1489 1394 1595 2001 2472 2187 1688 1452 1268 1226 1278 1313 1345 1323 2610 2187 2231 2047 2107 2457 2650 2587 2803 2866 2830 2828 2921 3000 2992 2915 2715 2674 2738 2776 2852 2519 2229 2540 2824 2987 3132
708 978 1311 1317 1480 1584 1686 1774 1826 1809 2010 2454 2518 2435 2608 2332 2391 2697 2826 2666 2628 2617 2529 2351 2129 2012 2006 1977 1861 1498 1590 1707 1952 2245 2473 2566 2625 2590 2463 2239 1934 1550 1248 1398 1546 1488 1753 2033 2343 1991 1665 1492 1340 1250 1200 1209 1243 1283 1302 1395 1551 1623 1523 1772 2111 2342 2589 2583 2588 2558 2605 2710 2971 2980 2916 2972 2924 2935 2909 3145 3260 3043 2868 2854 3075
642 730 974 1138 1349 1506 1711 1792 1814 1884 1924 2075 2244 2319 2451 2374 2284 2284 2696 2829 2577 2641 2617 2540 2409 2250 2250 2221 2206 1900 2048 1879 2117 2366 2572 2716 2742 2722 2683 2590 2348 1949 1543 1221 1397 1689 1781 2131 2422 1716 1448 1313 1249 1205 1169 1148 1152 1186 1215 1243 1252 1285 1312 1369 1817 2182 2350 2226 1993 2342 2444 2742 3108 3100 3059 3135 3111 3394 3628 3519 3585 3423 3372 3261 3283
534 622 606 777 981 1199 1309 1456 1502 1660 1807 1838 2023 2075 2179 1972 1655 1697 2336 2682 2740 2354 2258 2180 2224 2351 2227 2321 2483 2518 2428 2203 2410 2555 2625 2689 2764 2790 2773 2731 2608 2330 1974 1574 1239 1409 1693 1756 1619 1458 1298 1193 1155 1125 1106 1095 1096 1111 1140 1149 1181 1201 1317 1393 1776 2141 2039 1895 2128 2035 2343 2754 3196 3312 3340 3568 3506 3485 3509 3461 3262 3282 3270 3315 3281
262 464 514 489 635 869 1077 1072 1032 1372 1592 1769 1810 1870 2119 2395 2211 2435 2902 2835 2826 2896 2750 2587 2336 2243 2207 2413 2543 2562 2537 2489 2629 2734 2787 2820 2858 2870 2866 2809 2686 2543 2315 2005 1669 1327 1098 1234 1267 1200 1122 1110 1073 1070 1084 1092 1146 1179 1174 1167 1200 1271 1360 1449 1683 1667 1912 1989 2216 2448 2676 2933 3110 3250 3450 3538 3483 3424 3337 3295 3250 3166 2998 3002 3230
201 261 367 446 443 563 798 863 864 1055 1387 1790 1900 2032 2083 2338 2500 2588 2727 2711 2720 2799 2721 2761 2690 2554 2580 2434 2626 2706 2565 2585 2755 2657 2719 2757 2838 2933 2987 2938 2836 2664 2523 2317 2090 1732 1381 1104 982 967 1040 1013 1047 1111 1168 1226 1287 1323 1339 1330 1342 1377 1435 1510 1748 2109 2135 2398 2633 2779 2830 2963 3125 3210 3435 3360 3168 3175 3153 3146 3079 3131 3061 3044 3164
40 156 222 297 313 358 492 599 676 830 1094 1342 1430 1721 1984 2185 2770 2866 2840 3182 3296 2994 2716 2794 2837 2779 2720 2850 2898 2977 2823 3038 2961 2931 2624 2716 2796 2899 2974 3001 2954 2845 2684 2565 2398 2138 1784 1408 1168 1100 1100 1132 1177 1219 1268 1315 1367 1409 1435 1452 1474 1494 1538 1600 1679 2030 2446 2543 2640 2934 3017 3089 3039 2904 2797 2712 2754 2878 2980 2953 2845 2950 2876 2739 3062
2 1 2 203 296 88 291 393 362 491 966 1221 1407 1542 1826 2163 2694 3163 3176 3120 3256 3452 3308 3028 3107 2935 3189 3163 3172 2866 3220 3240 3196 2526 2639 2704 2697 2756 2842 2936 2943 2884 2755 2683 2642 2500 2220 1851 1447 1436 1354 1278 1473 1507 1436 1656 1816 1769 1734 1514 1541 1577 1599 1655 1732 1836 2147 2261 2421 2717 3005 3013 2890 2675 2504 2617 2662 2548 2600 2553 2611 2525 2867 2899 2972
3 2 2 1 84 92 7 215 361 247 298 725 1244 1528 1738 2060 2383 2773 3116 3296 3436 3458 3357 3327 3321 3265 3100 3097 3478 3522 3589 3565 2836 2574 2600 2635 2648 2586 2556 2634 2660 2683 2562 2551 2518 2441 2278 2143 1922 1771 1836 1865 1766 1791 1864 1963 2080 2166 2182 1904 1746 1775 1655 1668 1716 1978 2187 2321 2558 2566 2610 2693 2922 3019 2837 2477 2381 2235 2313 2377 2559 2653 2463 2526 2524
6 2 20 8 6 6 7 7 215 66 90 262 774 1254 1534 1867 2468 2917 3143 3244 3332 3489 3531 3449 3352 3149 3078 3734 3490 2910 2795 2790 2649 2697 2725 2694 2656 2642 2585 2653 2648 2635 2489 2389 2375 2353 2260 2163 2143 2024 1792 1916 2030 1983 1997 2120 2206 2323 2426 2440 2228 2142 1772 1945 2005 1974 1861 2042 2158 2388 2583 2761 2851 2781 2500 2142 2191 2280 2447 2196 2219 2320 2415 2375 2285
5 6 3 61 58 48 38 12 43 58 4 4 134 946 1520 1828 2240 2665 3107 3276 3409 3520 3512 3396 3296 3239 3194 3102 3362 4106 3064 2925 2922 2901 2896 2883 2855 2814 2766 2683 2722 2708 2624 2485 2460 2411 2303 2237 2167 2092 2011 1896 1849 2084 2165 2331 2433 2520 2581 2626 2638 2448 2255 2205 2245 2292 2240 2296 2445 2501 2368 1924 1980 2009 1999 2006 2023 2076 2122 2133 2074 1942 1767 1915 2024
3 6 4 4 4 52 40 6 68 10 129 106 4 447 1145 1892 2250 2599 2826 3092 3401 3519 3519 3447 3364 3303 3248 3201 3155 3108 3064 3029 3017 2994 2980 2961 2944 2897 2862 2830 2798 2789 2694 2599 2527 2470 2400 2322 2262 2213 2132 2043 1934 2163 2221 2282 2443 2618 2735 2782 2776 2836 2690 2667 2179 2681 2574 2522 2386 2218 1856 1808 1833 1833 1842 1965 2096 2154 2124 2057 1914 1820 1845 1934 1906
2 3 7 9 7 54 5 6 6 39 136 208 258 10 743 1448 2160 2573 2529 2706 2893 3138 3356 3443 3378 3306 3268 3264 3240 3166 3148 3083 3069 3078 3073 3032 3010 2972 2932 2892 2854 2857 2816 2733 2592 2568 2512 2492 2461 2394 2303 2191 2103 1990 2186 2327 2424 2637 2774 2878 2947 3121 3409 3492 3128 2530 1959 1812 1680 1694 1665 1701 1715 1752 1888 2053 2094 2076 2046 1993 1902 1875 1877 1844 1749
2 2 3 6 7 4 5 4 5 6 7 22 9 391 495 633 1485 2143 2381 2560 2733 2940 3168 3358 3490 3507 3487 3399 3335 3271 3227 3173 3120 3129 3129 3107 3060 3032 2988 2934 2926 2940 2901 2823 2720 2680 2638 2568 2551 2498 2435 2368 2322 2248 2144 2288 2476 2599 2741 2963 3108 3139 3519 3526 2926 2384 1788 1673 1634 1598 1547 1560 1596 1696 1859 2057 2183 2138 1825 1600 1646 1828 1791 1676 1592
2 3 2 2 2 2 2 3 6 3 4 7 9 9 296 522 637 1242 1914 2259 2510 2698 2741 2818 3004 3328 3518 3469 3397 3337 3299 3263 3191 3160 3167 3151 3108 3080 3031 3050 3003 3029 3023 3001 2952 2907 2860 2806 2780 2754 2724 2728 2680 2513 2313 2175 2402 2698 2759 2731 2800 3063 3211 3178 2522 1937 1818 1765 1656 1561 1472 1457 1520 1669 1896 2151 2204 2049 1741 1436 1366 1533 1608 1598 1598
2 1 2 3 1 2 2 1 1 4 4 5 9 10 11 9 470 644 1110 1932 2507 2726 2680 2626 2705 2837 2960 3133 3297 3336 3340 3335 3347 3343 3299 3276 3230 3162 3085 3021 2958 2899 2892 2959 3049 3070 3056 3082 3047 2993 2918 2860 2880 2913 2815 2642 2499 2538 2474 2685 2926 3088 3166 3137 2700 2006 1935 1904 1813 1696 1588 1559 1637 1814 2092 2317 2310 2116 1828 1579 1432 1423 1420 1408 1326
4 2 3 3 4 3 2 1 1 1 3 3 6 8 7 6 6 367 618 926 1539 2136 2704 2752 2596 2581 2570 2538 2462 2614 2950 3054 3171 3290 3350 3369 3366 3299 3245 3170 3125 3066 2996 2968 3021 3025 3066 3117 3116 3088 3109 3062 3048 3047 3049 2996 2830 2662 2566 2879 2919 3020 2505 2484 2068 2033 2027 2026 1983 1900 1867 1895 1920 2056 2237 2373 2302 2043 1763 1598 1491 1431 1374 1418 1521
6 3 1 1 2 2 1 2 2 1 0 2 2 4 6 7 7 7 8 449 578 852 1363 1902 2336 2593 2609 2417 2192 2144 2114 2264 2491 2773 2983 3120 3206 3232 3281 3328 3307 3288 3274 3262 3246 3210 3151 3145 3128 3146 3179 3075 3084 3138 3161 3117 2952 3022 2825 2660 2675 2662 2473 2220 2082 2076 2033 1980 1936 1864 1884 1945 2002 2102 2251 2338 2226 2016 1869 1702 1540 1416 1565 1735 1816
5 4 2 3 3 4 0 2 2 0 1 1 2 4 4 6 7 6 6 6 266 450 580 703 936 1408 2018 2503 2506 2396 2206 2137 2111 2112 2216 2540 2677 2762 2802 2918 3059 3112 3154 3194 3215 3139 3146 3148 3132 3197 3225 3278 3182 2998 2748 2668 2547 2482 2412 2338 2380 2458 2590 2293 2094 2083 2079 1976 1872 1825 1834 1885 1956 2089 2258 2327 2234 2024 1846 1643 1553 1767 1968 2079 2139
4 4 7 5 1 2 1 0 1 1 1 2 3 3 3 6 6 8 6 5 6 6 393 476 534 584 718 948 1322 1664 1854 2006 2255 2398 2297 2036 1989 2063 2153 2356 2579 2686 2782 2896 2917 2916 2893 2906 2793 2834 2909 3022 2965 2594 2820 2944 2858 2673 2418 2278 2225 2225 2164 2143 2186 2244 2172 2049 1934 1864 1846 1849 1951 2111 2222 2190 2127 2036 1874 1777 2059 2267 2292 2218 2156
5 5 6 5 6 2 2 0 1 1 1 1 1 2 3 5 5 6 5 5 6 4 3 221 413 481 536 562 581 607 703 1015 1075 1443 1836 2097 2124 2011 1938 1936 2016 2172 2389 2630 2754 2867 2916 2975 3026 3011 2978 3034 2906 2750 3011 2997 3043 2955 2510 2297 2145 2160 2315 2338 2333 2415 2424 2290 2127 1982 1912 1961 2088 2281 2268 2019 1855 1843 1814 1988 2130 2197 2184 2121 1965
8 7 8 7 3 2 2 1 2 1 1 1 3 3 2 2 3 5 5 6 5 5 5 4 66 300 484 578 616 658 707 696 693 726 797 995 1435 1796 1883 1889 1894 1911 1957 2078 2230 2388 2604 2736 2669 2583 2545 2662 2766 2871 2967 3026 2971 2952 2844 2733 2775 2664 2352 2254 2263 2366 2441 2453 2299 2108 2024 2084 2164 2182 2117 1874 1644 1732 1960 1944 1896 1853 1782 1622 1517
8 7 6 4 2 1 2 2 2 2 1 2 2 2 2 1 1 4 4 5 4 4 4 4 184 226 285 376 482 569 614 648 706 716 691 737 867 1122 1412 1626 1724 1800 1878 1960 2018 2038 2045 2093 2093 2060 2257 2335 2400 2460 2517 2443 2456 2413 2466 2476 2500 2556 2693 2500 2151 2158 2288 2364 2349 2188 2058 2103 2061 2030 1934 1752 1778 1855 1806 1658 1609 1504 1372 1240 1201
3 2 1 2 1 2 1 2 2 1 2 2 1 1 2 2 3 4 4 4 5 4 4 4 158 212 240 247 294 373 519 647 720 737 757 781 788 805 886 1017 1192 1421 1588 1696 1826 1840 1917 1906 1889 1909 2006 2106 2146 2084 1981 1973 2021 2067 2100 2112 2279 2474 2426 2674 2577 2231 2010 2030 1949 1762 2055 2203 2127 1889 1833 1838 1828 1780 1673 1587 1443 1285 1100 1016 1098
2 2 2 1 1 1 2 1 3 1 1 1 1 1 1 1 2 2 3 4 5 2 52 141 168 198 218 239 235 246 302 426 562 669 739 786 870 938 962 987 1006 1052 1117 1193 1282 1397 1518 1601 1611 1680 1732 1720 1725 1720 1764 1771 1812 1825 1790 1777 1938 2187 2376 2272 2299 2245 2153 2110 1988 1857 1800 1933 2087 1942 1914 1846 1712 1562 1396 1183 1064 1001 972 948 900
2 2 3 2 1 1 2 2 2 2 1 2 2 2 2 2 3 4 4 5 5 2 138 172 182 202 219 239 249 255 248 261 380 498 670 812 844 854 919 954 988 1023 1079 1158 1174 1234 1287 1311 1368 1442 1451 1486 1511 1462 1427 1440 1470 1518 1588 1784 1924 1935 2041 2258 2125 1996 2151 2079 1728 1454 1697 2154 2101 1947 1720 1585 1395 1246 1082 1001 966 958 961 922 817
1 3 2 3 1 1 2 1 1 2 2 2 2 1 2 2 2 3 4 76 136 153 180 194 214 243 252 266 303 303 288 284 306 378 506 611 700 833 916 968 1078 1168 1189 1178 1160 1156 1171 1204 1197 1195 1162 1122 1091 1080 1106 1194 1300 1390 1435 1457 1472 1492 1537 1735 2010 1952 1301 1673 1518 1639 1935 1935 1814 1676 1523 1272 1185 1091 958 948 961 918 905 860 756
2 2 2 2 2 2 2 2 2 2 2 2 1 1 2 2 2 2 2 2 132 181 215 237 240 251 263 263 250 249 267 302 351 375 361 356 422 553 633 739 787 828 858 891 899 884 897 1004 1095 1141 1102 948 848 793 794 851 968 1130 1222 1208 1152 1112 1072 1252 1364 1421 850 1500 1736 1817 1762 1612 1456 1198 974 962 948 1019 1113 1112 1061 901 869 808 766
3 1 3 4 8 6 3 2 2 2 3 1 1 2 2 2 2 3 2 3 2 120 223 288 302 298 294 286 276 279 293 327 366 427 488 517 504 508 536 587 661 720 746 757 730 697 700 722 777 815 817 768 634 545 539 600 675 767 838 852 867 886 905 959 1105 1327 1016 1134 1549 1654 1550 1417 1173 873 775 842 858 870 998 1024 943 805 687 560 548
4 2 2 4 10 14 15 14 11 6 2 2 2 1 2 2 2 2 2 2 2 2 154 250 341 360 354 342 316 283 261 283 328 385 392 361 377 425 473 490 484 482 478 472 454 433 401 404 494 596 678 686 574 489 520 561 550 561 593 607 599 575 679 895 1044 1248 935 393 744 1232 1323 1140 953 807 742 642 656 776 830 778 587 385 292 290 256
Wind_Speed
15 15 15 13 13 13 12 13 11 12 11 10 9 9 8 8 7 6 6 4 5 4 3 3 4 4 5 5 5 6 6 7 8 8 9 10 11 12 12 9 9 10 9 8 7 7 7 8 9 9 9 9 9 9 10 9 8 7 6 6 7 7 7 8 9 10 8 7 6 7 7 6 6 5 6 7 7 7 5 4 4 4 4 3 2
17 17 17 16 13 14 13 14 13 13 10 10 9 9 8 8 8 8 5 5 5 4 3 3 3 4 4 4 5 6 7 7 7 7 7 9 11 12 11 10 9 9 9 8 7 7 6 6 7 7 7 9 10 9 9 9 8 7 4 4 5 6 5 7 8 8 9 7 6 7 5 4 5 5 5 6 6 6 6 5 5 5 5 3 3
19 20 19 17 15 16 16 15 14 12 10 10 9 8 9 9 10 7 6 7 6 5 4 3 4 4 4 4 5 6 7 7 7 7 7 7 10 12 12 11 10 10 9 8 7 7 6 6 7 6 6 7 7 8 9 9 9 9 7 5 5 6 5 4 6 7 8 7 6 5 5 4 3 4 4 3 2 2 3 4 4 5 4 4 5
21 22 20 18 17 17 17 16 13 12 11 12 10 9 10 10 10 8 7 8 7 7 5 4 5 5 4 4 5 6 7 8 8 7 6 6 8 10 10 11 11 11 10 10 8 7 7 8 8 7 6 6 7 7 8 8 8 7 6 5 4 4 5 4 3 5 6 6 5 4 5 4 3 3 4 4 2 2 3 4 4 4 3 4 5
21 21 20 18 18 17 16 16 15 12 11 13 11 11 11 12 12 9 9 8 7 8 8 6 6 6 5 4 5 6 7 8 8 7 7 7 7 9 9 10 10 11 11 10 9 8 8 9 9 8 6 6 6 6 6 6 7 7 7 6 5 4 4 3 3 3 3 3 4 3 3 3 3 4 5 4 3 2 4 5 5 5 4 2 3
21 22 22 20 20 17 18 17 15 13 13 13 13 13 13 13 13 12 10 9 9 8 8 8 7 6 6 6 6 7 8 9 8 7 7 6 7 8 9 9 10 10 10 10 9 8 8 8 8 8 7 6 6 6 5 5 6 6 6 6 7 6 5 4 4 3 2 2 2 2 3 2 3 4 5 6 4 2 3 6 8 8 6 4 3
24 25 24 22 23 20 19 18 18 16 16 16 18 18 16 14 13 13 13 11 10 9 8 7 9 9 8 7 7 8 8 9 10 8 7 7 7 8 8 9 9 9 9 9 9 8 7 7 7 6 7 6 6 5 4 3 4 4 5 5 6 7 7 6 5 4 4 4 3 3 2 4 6 5 7 7 5 5 4 6 7 9 9 7 4
26 27 27 26 25 23 22 21 20 20 20 21 20 20 18 17 16 16 16 13 11 10 9 9 10 11 9 9 9 9 9 10 11 9 9 8 8 8 8 9 9 9 9 8 8 8 7 6 6 5 5 4 4 4 3 2 3 2 4 5 6 6 6 6 6 6 6 6 6 6 6 7 9 10 10 9 8 8 9 10 9 9 10 12 10
27 28 29 28 26 26 26 25 25 24 23 24 23 22 20 19 19 19 18 15 15 12 12 11 12 11 11 10 9 10 9 10 12 12 10 9 8 8 8 7 8 8 8 8 7 7 7 6 6 5 3 2 2 1 2 2 2 2 3 4 4 4 4 5 5 6 6 6 7 9 8 9 11 13 13 13 12 10 10 11 12 13 14 15 16
27 27 27 28 28 30 30 29 28 26 26 24 24 23 22 22 21 20 18 17 17 17 15 14 12 12 12 11 11 10 10 12 12 9 10 12 10 10 9 9 8 8 8 8 7 6 6 6 5 4 2 1 2 3 4 3 4 2 1 4 5 5 5 4 4 5 5 5 6 7 7 8 11 13 12 13 13 11 10 12 13 16 16 16 18
24 24 25 27 30 31 33 31 31 29 28 27 27 26 24 24 23 22 21 20 18 19 18 15 13 13 12 12 10 10 10 12 9 10 8 8 11 12 11 10 10 8 7 8 8 7 6 5 5 3 1 1 1 4 4 6 6 7 6 4 3 4 4 5 5 5 5 4 5 7 7 8 10 11 11 11 12 9 9 12 13 16 16 16 16
22 21 21 28 32 34 33 31 31 30 30 29 29 28 28 27 26 24 23 21 22 20 18 16 16 15 16 13 11 10 10 10 nan nan nan nan 10 12 13 12 12 10 9 8 9 9 8 7 7 7 6 3 3 5 6 7 7 7 8 7 8 7 6 5 5 6 7 6 6 7 7 9 10 12 11 11 11 10 9 11 13 13 13 14 16
23 22 21 26 31 34 33 32 32 32 31 30 31 32 30 28 26 25 21 21 23 22 18 17 17 17 15 14 12 10 11 11 nan nan nan nan nan 12 15 14 13 11 11 10 10 10 11 11 10 10 9 7 6 5 7 9 10 9 8 8 7 9 9 9 8 7 7 7 7 7 10 10 10 11 12 12 11 9 9 10 12 13 13 13 15
26 24 25 26 29 30 33 34 32 31 32 33 34 32 30 27 25 25 25 26 25 22 18 17 18 18 16 14 14 13 12 13 nan nan nan nan nan nan 17 15 15 13 12 11 12 11 11 11 11 10 9 9 9 8 8 9 10 12 10 10 9 9 11 11 10 10 10 9 8 8 11 14 12 11 12 14 13 11 10 10 11 12 13 12 13
35 30 29 27 27 27 31 33 33 33 34 35 35 33 31 29 27 27 27 26 25 23 20 19 18 17 15 14 14 12 13 11 16 nan nan nan nan nan 20 19 18 16 14 13 13 13 12 12 10 9 9 9 11 11 11 11 12 11 11 10 11 10 10 11 13 13 14 14 12 11 11 13 13 12 13 15 14 13 12 10 11 12 12 11 11
49 38 31 31 28 28 29 30 32 34 36 36 35 33 32 30 29 28 28 26 26 24 23 21 18 16 15 14 13 11 11 12 16 16 15 15 nan nan 21 21 20 19 17 16 16 16 15 13 12 10 10 9 11 14 13 13 13 11 11 11 11 11 10 11 13 14 14 15 15 14 13 13 15 13 13 14 14 14 13 12 13 14 15 13 13
54 54 46 34 32 32 31 30 31 33 35 36 35 33 32 31 30 31 29 26 25 25 23 21 20 18 16 16 13 12 12 15 18 18 19 19 24 22 20 21 22 20 20 20 19 18 17 15 14 14 12 11 13 18 17 16 14 12 12 12 12 11 11 14 18 17 16 14 13 13 12 12 12 12 12 14 15 14 14 11 13 17 16 14 14
56 53 51 51 42 34 32 31 30 30 33 33 33 32 31 32 31 32 30 27 25 24 25 24 22 21 18 16 15 14 13 16 22 22 22 25 26 22 21 21 20 21 22 22 23 22 19 16 16 15 14 14 16 21 22 23 17 15 14 14 13 12 13 15 17 21 20 17 16 16 15 14 14 13 14 15 19 23 19 16 16 18 15 16 16
53 52 51 47 45 42 34 31 30 28 27 28 30 31 32 32 33 34 31 30 27 27 27 26 24 23 20 17 18 16 15 18 25 25 25 29 29 25 23 22 20 20 23 23 24 25 24 23 19 18 18 17 19 24 27 28 22 20 18 17 15 13 16 18 18 18 22 21 19 19 19 19 19 20 20 20 24 27 23 20 18 19 18 18 18
49 51 51 48 46 44 40 34 30 28 26 26 29 31 34 35 35 35 33 32 29 28 27 26 23 24 23 21 21 18 16 19 27 28 29 31 31 29 27 25 21 20 21 23 25 24 24 25 26 23 20 20 23 27 31 31 27 25 24 22 18 17 21 22 21 20 20 20 18 20 20 22 24 25 25 25 28 29 26 24 22 21 20 18 17
53 51 50 50 49 46 44 39 33 28 28 29 31 32 34 34 34 34 32 32 30 29 26 26 25 25 25 24 22 20 20 20 25 32 31 33 32 31 29 25 23 24 24 24 23 22 23 24 24 28 27 25 26 29 33 34 31 30 29 25 23 23 26 25 24 25 21 20 21 21 21 23 24 24 25 27 28 30 30 27 24 22 20 17 16
57 54 51 49 50 49 47 46 43 36 32 32 32 32 34 35 35 34 33 33 30 29 28 28 27 26 26 24 23 22 22 22 24 33 33 34 34 32 28 24 26 27 26 24 22 21 21 24 25 28 32 30 29 30 32 36 34 35 31 27 26 27 27 26 26 26 26 25 25 25 25 25 26 27 27 28 29 29 29 29 27 23 20 17 16
62 58 54 52 51 51 49 46 46 49 43 36 32 31 33 34 34 36 35 32 31 29 29 29 28 26 26 26 26 25 24 26 23 28 33 34 34 32 27 24 29 28 25 22 22 21 23 23 24 28 33 31 31 31 32 34 37 34 29 29 29 28 30 30 28 28 27 26 24 23 24 24 26 28 29 30 30 30 29 27 26 24 21 19 17
63 61 58 57 54 53 53 53 53 47 42 41 40 34 33 38 38 37 35 32 30 29 29 28 26 24 24 25 26 26 27 25 28 25 31 33 33 32 28 24 27 28 25 21 22 23 24 24 26 28 30 31 31 31 31 35 35 31 30 29 29 32 34 31 30 29 27 25 25 26 26 27 29 30 30 31 30 31 30 28 25 22 21 20 20
63 62 62 60 57 55 54 53 52 49 44 43 40 37 40 41 33 31 31 30 28 25 23 22 22 21 20 23 24 25 24 23 23 28 27 32 31 30 27 26 23 25 24 21 22 23 24 24 26 28 29 30 30 31 31 31 30 29 30 30 32 36 35 32 30 30 25 25 26 27 27 29 31 31 31 31 31 30 29 28 25 23 20 17 17
63 62 62 61 59 56 56 53 50 48 47 46 43 40 41 40 34 33 33 31 27 25 22 20 21 20 18 17 19 21 23 22 21 25 30 28 28 26 26 24 22 22 20 19 20 20 22 26 26 27 28 29 33 34 33 32 30 29 29 33 35 34 34 34 32 28 25 25 28 30 32 33 33 33 33 33 31 29 29 27 26 24 21 20 21
63 61 61 61 60 58 58 55 52 50 49 49 46 43 41 39 37 34 31 30 26 21 20 21 19 17 16 15 17 18 20 21 22 23 27 28 27 27 25 22 19 19 19 18 19 23 23 26 28 27 27 28 29 29 29 30 33 32 32 33 33 33 33 33 32 30 29 29 30 31 33 34 35 35 35 34 30 29 29 28 26 24 24 22 21
nan 63 61 60 60 60 59 60 58 55 55 53 49 47 43 40 39 35 29 27 25 22 20 20 19 17 16 17 18 18 19 21 22 22 23 25 26 27 27 26 26 25 22 21 23 21 22 24 22 23 24 24 25 26 26 28 29 31 32 33 32 31 30 30 29 27 25 26 27 28 31 35 35 34 33 32 29 30 32 30 26 24 25 25 24
nan nan nan 62 62 nan 61 60 59 57 54 51 48 46 45 45 45 39 30 29 27 26 23 22 21 19 20 20 20 20 21 21 22 24 24 25 26 26 28 26 27 26 22 25 27 26 24 22 20 19 18 18 19 19 21 24 25 26 27 30 31 31 30 30 28 25 25 25 25 25 28 31 31 33 33 31 30 29 29 29 29 28 29 30 28
nan nan nan nan nan nan nan 61 59 58 55 52 51 49 46 43 42 41 39 36 31 24 25 25 25 27 24 22 23 23 23 24 29 28 27 28 28 27 27 28 27 26 25 31 30 28 24 20 19 18 17 17 17 18 19 21 22 24 25 27 28 29 29 28 26 25 26 27 27 27 26 29 30 32 33 30 28 28 30 32 34 36 35 33 34
nan nan nan nan nan nan nan nan 61 nan nan 53 52 52 52 48 40 35 34 33 31 30 25 22 26 32 30 26 25 25 24 30 34 33 30 28 29 28 26 27 30 27 39 46 35 28 24 22 21 20 19 19 19 20 22 23 23 24 24 25 26 26 27 26 26 26 26 26 27 26 27 29 29 30 29 29 30 31 34 38 38 37 36 38 40
nan nan nan nan nan nan nan nan nan nan nan nan 54 54 54 50 45 41 40 39 34 26 26 26 25 25 25 28 29 30 27 24 28 34 33 32 31 31 29 30 31 36 42 44 38 31 27 24 23 23 23 21 21 23 25 26 26 26 26 26 25 26 27 26 27 28 28 27 27 28 29 26 26 27 29 30 32 33 35 37 41 38 37 38 41
nan nan nan nan nan nan nan nan nan nan 60 58 nan 56 53 50 46 45 46 45 41 35 31 30 29 28 28 29 29 28 31 34 30 32 35 35 35 34 33 33 36 45 50 43 34 33 32 30 28 27 25 23 23 25 26 28 29 29 29 28 27 28 28 28 30 29 28 28 28 27 28 28 29 29 30 31 33 33 36 39 39 38 38 38 38
nan nan nan nan nan nan nan nan nan nan 59 56 55 nan 56 53 50 48 48 49 49 46 41 37 37 38 37 35 32 31 31 33 38 38 37 38 39 37 40 46 51 48 45 40 38 35 36 35 34 33 30 27 26 26 27 29 29 29 29 29 29 28 30 32 33 31 28 29 28 27 28 29 31 32 31 32 34 36 38 39 39 37 37 38 37
nan nan nan nan nan nan nan nan nan nan nan nan nan 55 55 53 50 48 49 50 51 52 55 53 48 43 42 42 38 34 33 32 35 42 43 41 42 50 56 51 48 44 40 37 37 37 36 37 36 38 39 36 33 30 27 27 27 27 27 27 27 28 30 31 33 32 31 31 31 30 31 31 31 32 34 35 37 39 40 40 39 37 37 38 38
nan nan nan nan nan nan nan nan nan nan nan nan nan nan 52 51 51 51 50 50 51 53 56 57 60 58 48 44 44 45 42 39 38 40 42 45 51 55 46 42 41 41 40 38 36 36 37 36 37 38 41 41 40 36 31 28 26 25 26 25 26 27 30 31 32 32 33 32 31 31 32 32 32 34 35 36 37 40 42 42 41 40 38 38 38
nan nan nan nan nan nan nan nan nan nan nan nan nan nan nan nan 53 53 52 53 53 54 54 57 58 57 59 58 53 50 49 47 44 45 46 48 49 47 41 40 39 39 39 37 38 37 38 37 39 40 40 42 41 40 37 34 30 29 28 28 27 28 29 32 33 32 32 33 33 32 31 31 33 35 36 36 37 39 41 42 42 41 41 41 41
nan nan nan nan nan nan nan nan nan nan nan nan nan nan nan nan nan 54 55 54 54 53 53 55 55 55 56 61 65 62 63 64 65 61 59 58 54 46 43 40 39 39 38 39 42 41 39 38 40 40 40 40 40 42 42 40 39 36 34 34 32 30 30 32 33 32 32 32 33 33 34 33 34 36 38 37 37 39 41 43 43 43 42 42 41
nan nan nan nan nan nan nan nan nan nan nan nan nan nan nan nan nan nan nan 52 52 53 55 55 54 53 53 57 62 66 66 62 58 54 54 52 51 49 46 43 40 38 37 39 44 45 42 41 40 41 41 42 42 44 45 45 46 42 40 39 37 37 36 34 32 33 34 34 34 35 37 36 37 38 40 39 39 41 43 45 46 45 46 44 42
nan nan nan nan nan nan nan nan nan nan nan nan nan nan nan nan nan nan nan nan 51 52 54 57 60 58 55 55 58 64 61 60 58 55 55 55 53 51 49 46 43 40 40 41 43 46 45 44 44 45 45 44 45 46 52 56 52 43 42 44 45 45 44 43 38 37 38 39 40 41 40 39 39 40 41 39 39 43 44 45 47 48 47 45 44
nan nan nan nan nan nan nan nan nan nan nan nan nan nan nan nan nan nan nan nan nan nan 50 54 59 63 67 70 67 61 60 60 59 57 57 55 54 53 53 50 46 44 43 44 45 46 48 47 48 48 48 48 50 54 55 52 49 45 43 42 44 46 48 49 46 43 44 46 45 44 43 42 42 41 41 43 47 48 47 47 46 46 47 46 45
nan nan nan nan nan nan nan nan nan nan nan nan nan nan nan nan nan nan nan nan nan nan nan 48 53 57 61 69 74 68 62 62 61 60 58 56 54 52 53 53 49 47 46 46 46 47 48 50 50 51 51 52 55 56 54 52 51 52 50 49 47 46 46 46 49 52 51 51 50 49 48 48 46 43 43 48 52 53 52 50 47 47 47 47 45
nan nan nan nan nan nan nan nan nan nan nan nan nan nan nan nan nan nan nan nan nan nan nan nan nan 51 54 61 63 65 63 62 62 62 63 64 64 65 65 63 61 59 57 57 59 57 55 53 52 53 54 56 59 58 56 55 55 55 54 53 53 54 54 54 57 58 56 57 58 56 53 52 52 48 45 48 52 56 57 55 52 49 48 47 46
nan nan nan nan nan nan nan nan nan nan nan nan nan nan nan nan nan nan nan nan nan nan nan nan 46 49 52 55 57 58 58 57 57 59 61 63 64 64 64 64 63 62 61 61 60 59 57 56 55 57 60 60 60 57 56 54 52 52 54 55 56 55 55 55 57 60 62 65 66 66 62 57 53 50 48 49 52 56 58 60 58 54 51 48 46
nan nan nan nan nan nan nan nan nan nan nan nan nan nan nan nan nan nan nan nan nan nan nan nan 44 47 51 54 56 56 56 56 56 56 57 59 61 62 63 64 65 65 64 63 62 62 62 61 60 60 60 61 61 59 57 57 57 56 56 56 57 58 58 58 60 64 67 66 66 67 62 57 52 49 48 51 54 57 59 60 60 59 56 53 52
nan nan nan nan nan nan nan nan nan nan nan nan nan nan nan nan nan nan nan nan nan nan nan 46 46 47 50 54 55 56 57 58 59 59 59 59 59 61 62 63 64 65 65 64 63 64 64 64 63 62 61 61 60 58 57 56 55 56 57 58 56 55 56 58 62 68 69 68 68 66 61 56 54 53 54 56 57 57 58 59 58 56 55 55 55
nan nan nan nan nan nan nan nan nan nan nan nan nan nan nan nan nan nan nan nan nan nan 49 49 48 49 51 53 55 57 57 57 58 58 59 59 60 60 61 62 63 64 64 65 64 64 65 65 65 64 63 63 62 60 59 58 56 55 56 57 57 56 58 63 65 69 70 68 67 66 66 68 70 68 62 59 58 58 59 60 60 60 58 59 59
nan nan nan nan nan nan nan nan nan nan nan nan nan nan nan nan nan nan nan nan 50 50 51 51 51 52 53 53 55 57 58 56 56 56 57 58 59 59 61 62 63 62 62 63 63 63 63 63 63 63 63 63 62 61 60 59 58 56 56 56 55 55 57 59 63 66 68 68 68 69 71 73 75 74 70 67 64 63 63 63 63 62 63 64 64
nan nan nan nan nan nan nan nan nan nan nan nan nan nan nan nan nan nan nan nan 51 51 51 52 53 55 56 55 55 56 58 57 57 57 57 58 59 60 60 61 61 60 59 59 60 62 63 64 65 64 64 64 64 64 63 61 61 60 59 60 56 51 57 61 60 62 66 68 69 70 73 76 78 80 79 75 69 66 65 62 61 62 63 64 65
nan nan nan nan nan nan nan nan nan nan nan nan nan nan nan nan nan nan nan nan nan 53 52 52 54 57 59 58 56 56 56 57 57 58 59 59 59 60 59 59 58 58 59 59 58 59 61 62 65 66 66 65 63 62 62 62 62 63 63 63 65 59 56 62 70 72 69 69 72 72 74 75 75 77 78 76 71 67 65 63 61 61 62 61 62
nan nan nan nan nan nan nan nan nan nan nan nan nan nan nan nan nan nan nan nan nan nan 57 55 55 56 60 61 59 57 57 57 58 59 60 61 61 61 60 58 57 56 55 56 57 58 59 61 63 65 64 64 64 62 61 62 63 66 71 76 74 69 63 62 70 78 80 74 71 71 73 77 79 77 75 74 72 70 69 68 65 64 63 63 63
Wind_Direction
226 225 225 217 212 212 209 207 202 201 199 204 203 201 197 195 191 181 202 197 203 195 196 205 229 243 233 224 217 225 225 219 213 205 197 185 178 170 165 168 160 157 166 170 175 177 170 170 176 182 186 181 188 187 183 183 192 195 203 198 185 191 186 187 181 178 194 224 202 193 200 194 198 216 200 201 204 212 202 211 202 222 228 248 277
225 226 226 222 221 217 211 207 205 204 202 206 207 206 203 208 207 209 203 209 211 193 188 198 225 247 245 234 225 225 228 221 209 208 198 189 179 178 169 162 157 153 161 160 165 169 169 166 169 178 191 180 182 182 183 181 181 185 207 196 187 190 206 188 188 186 183 207 211 213 208 239 194 226 219 200 199 209 208 216 234 242 255 267 296
226 226 226 225 226 224 221 214 211 209 206 207 208 205 206 211 217 211 204 209 220 210 203 193 222 243 243 234 232 228 229 218 209 205 198 188 180 173 171 165 156 151 150 153 152 159 157 156 152 168 193 187 185 180 183 183 183 182 181 194 188 185 215 214 195 183 182 193 216 206 225 234 221 220 232 249 235 252 245 240 246 268 285 289 302
227 228 228 225 225 227 228 223 218 213 208 207 210 210 207 212 218 213 213 212 220 225 220 218 229 237 235 234 226 224 227 217 208 203 193 183 176 174 173 168 159 154 150 149 150 152 146 145 146 155 172 175 179 182 188 188 191 193 192 203 208 183 201 230 219 189 192 183 206 217 230 238 254 272 276 292 311 300 292 284 301 297 281 290 305
226 228 230 229 226 224 227 229 225 219 214 213 216 218 214 211 215 215 215 214 220 228 230 231 234 239 232 236 232 229 227 221 211 196 189 181 172 169 170 170 163 156 154 154 153 149 146 141 144 151 160 163 168 177 187 194 196 198 197 210 219 215 225 229 217 228 204 176 183 228 261 286 299 304 297 280 285 301 307 317 304 313 318 300 308
223 226 227 229 226 225 226 229 230 227 222 220 223 225 221 217 216 218 217 219 227 228 233 235 239 243 238 237 237 233 230 227 218 200 185 178 178 172 171 169 165 161 157 155 154 153 146 144 144 145 148 150 159 174 189 193 207 206 208 215 220 226 229 229 236 235 224 209 194 188 284 276 277 303 305 302 291 276 291 315 335 335 328 323 298
219 222 224 226 224 223 225 227 228 228 226 224 226 228 227 223 220 219 222 219 224 226 229 235 238 242 243 240 237 237 233 228 222 212 197 186 180 178 170 169 168 170 164 156 154 152 148 148 147 142 138 142 146 157 180 199 217 214 231 231 231 236 234 237 246 243 243 237 243 262 259 288 290 274 293 299 307 322 306 292 304 316 317 302 291
218 220 220 220 221 222 222 223 223 225 225 227 230 232 231 229 225 224 225 226 222 222 224 230 234 238 240 240 238 238 236 229 226 220 211 202 194 184 180 174 169 169 167 166 160 155 152 151 146 142 133 133 133 142 150 175 223 230 249 254 252 250 244 247 251 252 253 254 257 255 263 262 275 282 283 291 288 296 303 290 285 291 297 305 306
220 220 218 217 217 220 222 221 220 224 228 231 233 234 234 233 232 231 231 226 223 222 221 220 226 232 237 240 240 240 235 229 226 225 221 216 205 193 191 185 178 173 171 167 169 166 159 158 153 141 136 112 85 122 151 205 213 240 279 298 296 291 283 277 273 268 266 264 263 270 273 274 276 278 281 286 286 279 277 283 285 291 296 300 306
226 220 218 217 217 220 222 223 222 224 227 229 231 234 234 234 234 235 232 229 225 226 225 224 222 227 233 238 241 238 234 229 234 246 233 221 220 211 208 204 194 186 182 180 177 175 166 164 165 133 125 55 35 19 19 16 9 24 309 312 319 319 324 321 312 299 288 280 277 276 277 275 275 281 284 289 291 293 289 284 277 276 285 293 300
238 232 222 219 220 222 222 222 222 225 226 227 230 232 233 233 234 234 235 234 232 231 231 226 220 218 221 227 233 231 227 227 246 252 245 235 222 220 219 216 215 207 196 196 196 192 190 190 190 209 280 299 8 5 348 349 356 3 15 17 345 331 332 336 330 323 315 308 295 298 295 281 281 285 293 292 297 299 289 277 273 275 281 284 288
245 239 229 226 228 228 225 223 223 225 227 228 229 232 233 235 235 237 237 237 236 234 229 226 223 220 220 219 219 218 217 227 nan nan nan nan 234 221 218 217 217 215 210 208 209 209 205 209 219 223 231 240 234 273 311 332 337 341 350 354 356 3 2 344 324 316 319 313 309 306 294 291 288 295 300 301 302 300 291 281 284 284 284 288 292
240 239 233 232 233 232 231 229 228 228 229 231 231 232 234 235 236 237 237 237 237 238 234 232 231 229 224 221 215 211 210 230 nan nan nan nan nan 232 217 216 216 214 216 221 220 220 221 222 219 223 223 260 257 249 254 276 308 334 333 335 340 345 352 2 357 337 311 309 310 306 304 297 300 305 311 317 314 316 299 293 293 293 289 291 296
230 237 236 236 236 234 234 233 231 231 232 233 235 236 237 236 237 238 238 239 241 241 240 238 234 234 232 226 220 215 213 226 nan nan nan nan nan nan 222 219 217 213 214 220 224 227 230 229 226 223 225 237 248 257 259 262 264 276 286 291 297 317 336 348 349 346 331 320 314 309 305 307 313 312 314 318 324 325 317 313 304 300 297 299 298
221 228 234 237 236 235 235 234 233 233 234 236 237 239 240 238 239 239 241 245 247 245 243 240 238 239 238 234 227 219 218 232 257 nan nan nan nan nan 229 224 220 216 216 219 224 229 232 233 230 225 227 237 248 261 262 265 268 269 274 281 287 290 300 310 315 313 313 316 322 323 313 310 314 316 313 314 322 322 321 323 314 308 309 312 314
221 222 230 234 234 236 236 234 232 232 234 236 238 240 240 242 244 244 243 244 245 245 246 244 243 243 243 240 236 227 222 249 264 269 271 264 nan nan 237 232 227 222 219 221 226 231 234 234 233 236 237 241 262 282 274 263 265 273 278 279 279 284 289 298 302 305 310 308 313 315 311 310 306 307 302 300 302 306 309 316 315 315 317 320 313
223 221 220 227 234 235 234 234 232 231 233 236 238 240 240 242 243 243 245 245 246 248 251 252 249 248 251 253 254 245 238 257 273 277 275 273 261 249 246 240 236 230 225 226 229 233 238 240 241 238 243 250 266 283 286 280 269 273 275 278 277 282 287 285 304 317 320 324 321 315 310 306 308 312 312 309 307 296 297 306 312 311 314 317 309
223 222 222 222 224 233 240 238 236 235 234 235 237 238 239 239 241 243 244 245 244 244 246 246 247 248 253 258 262 260 254 263 279 282 283 281 276 263 255 252 246 240 234 234 234 236 240 253 250 246 246 250 268 281 284 280 274 275 275 275 280 289 290 286 280 294 323 329 328 327 323 319 315 311 308 309 309 300 307 312 307 303 310 309 305
221 220 221 221 223 228 237 242 243 243 241 239 236 236 238 238 239 242 242 241 240 239 240 242 246 248 251 254 258 258 249 257 277 282 285 284 279 266 264 260 256 249 244 241 243 241 241 250 265 260 255 257 270 277 282 280 275 275 275 273 277 286 286 282 284 287 293 297 302 304 302 308 306 300 302 318 313 309 309 310 303 304 306 304 301
221 221 220 221 223 226 231 237 243 246 246 246 242 238 237 238 240 242 241 238 237 237 238 239 242 245 249 252 253 258 253 249 266 282 282 283 287 272 266 267 264 261 255 250 248 248 249 249 259 275 274 269 270 277 281 285 278 274 273 273 275 281 277 278 281 285 290 294 295 298 297 294 296 298 298 300 303 309 310 310 310 308 307 304 301
220 221 223 222 222 223 227 231 236 240 243 244 243 239 237 237 238 239 239 237 237 235 236 236 236 238 242 244 247 252 252 255 262 279 281 283 286 282 267 271 270 264 260 257 254 252 253 256 254 271 281 277 274 275 279 283 283 275 276 276 278 273 269 274 279 287 286 289 292 293 292 291 292 293 294 296 300 303 306 311 313 312 308 303 299
222 221 222 226 225 224 226 228 229 234 237 238 239 238 236 234 234 237 234 234 235 235 234 234 233 233 237 241 243 245 249 258 255 273 283 285 287 292 275 275 274 268 264 260 259 256 256 255 256 265 276 278 276 274 277 279 284 275 277 282 280 277 275 275 273 275 280 283 284 288 290 291 291 292 294 296 300 304 307 310 314 314 307 301 299
224 222 222 225 228 227 226 226 229 228 228 232 235 233 232 229 227 230 230 229 229 231 232 232 232 232 235 239 242 243 244 248 264 263 278 285 287 291 295 281 280 273 268 265 265 262 258 258 257 263 271 275 276 276 277 281 277 276 285 283 282 283 278 275 276 277 280 281 282 284 287 290 291 293 295 297 300 304 307 310 309 305 300 297 301
226 224 223 224 228 231 229 227 229 231 229 230 234 234 234 231 225 222 223 223 221 224 227 230 231 231 234 238 242 244 245 245 259 272 271 284 284 290 293 292 281 275 274 267 265 264 264 264 261 268 272 275 278 279 280 282 278 288 290 289 288 281 276 280 280 282 282 283 285 285 287 288 290 291 294 297 299 300 303 304 304 302 298 296 300
227 226 225 224 226 231 233 232 231 231 228 230 234 236 243 244 236 231 225 220 217 217 216 221 225 225 228 236 240 244 246 249 251 268 280 278 285 287 290 293 290 286 279 273 269 266 267 271 271 273 276 279 283 283 279 285 293 291 291 292 287 279 283 283 283 282 285 285 285 285 285 287 289 289 289 290 291 292 296 298 299 296 293 292 291
228 228 227 226 227 231 231 232 232 230 227 228 226 228 234 239 236 233 230 223 220 222 220 220 223 225 227 233 238 242 249 249 252 256 265 271 274 283 290 292 294 292 289 275 277 273 266 269 275 277 277 277 274 273 275 280 292 297 294 289 283 286 287 288 287 288 288 285 284 284 285 284 284 284 285 286 287 290 291 293 293 292 288 284 284
230 230 228 226 226 229 232 234 233 231 231 231 228 227 229 229 231 231 227 222 219 221 223 225 220 223 227 233 236 239 246 252 253 255 257 259 260 264 269 269 281 281 271 261 259 256 258 259 261 268 271 281 287 285 288 288 288 287 285 289 291 291 292 292 293 293 292 287 283 281 282 282 281 281 284 286 287 286 286 287 288 286 282 278 277
nan 230 228 227 227 228 231 228 228 230 228 227 224 221 222 224 228 232 230 224 216 215 216 214 214 218 221 226 233 238 245 252 256 257 258 259 260 262 266 267 268 270 271 268 266 264 261 265 269 267 272 275 281 283 288 289 292 291 290 291 292 293 296 297 296 294 294 289 282 280 280 282 284 285 283 284 285 284 285 285 285 283 280 276 274
nan nan nan 228 227 nan 231 231 231 229 227 225 224 222 219 216 216 220 222 225 219 216 213 209 213 216 218 223 233 240 247 252 256 261 262 266 264 263 267 270 270 270 282 284 271 265 266 270 275 283 286 289 290 292 293 293 294 295 295 292 290 290 291 292 296 299 298 294 292 290 286 283 283 283 282 280 279 278 280 282 282 282 278 276 271
nan nan nan nan nan nan nan 231 230 230 228 224 218 217 217 215 215 215 213 208 207 213 214 208 209 219 219 221 232 241 246 247 250 266 269 269 271 275 274 277 280 275 279 284 273 267 273 278 286 290 292 293 296 298 299 297 298 299 299 299 295 293 294 294 295 294 291 291 289 288 285 283 281 280 280 280 278 278 278 278 277 280 282 281 276
nan nan nan nan nan nan nan nan 231 nan nan 225 221 215 211 212 213 212 212 209 204 203 211 207 208 214 220 217 225 236 231 233 248 264 272 275 277 278 278 278 281 284 272 268 270 273 274 280 286 290 293 295 298 300 298 297 297 298 300 300 301 301 298 295 293 289 287 286 287 286 283 282 280 279 281 282 281 278 275 275 278 285 291 289 283
nan nan nan nan nan nan nan nan nan nan nan nan 225 219 214 212 212 213 209 207 208 211 214 215 220 226 225 228 227 229 241 245 251 261 266 271 274 274 275 275 278 280 281 282 274 279 282 281 281 284 288 292 296 295 297 296 295 295 295 297 300 302 302 298 291 288 286 285 284 284 283 283 283 282 281 281 280 277 276 277 281 291 299 297 290
nan nan nan nan nan nan nan nan nan nan 227 226 nan 224 219 216 214 213 213 212 210 212 215 222 227 227 231 231 232 230 229 240 252 256 260 263 266 268 269 271 268 269 272 274 281 283 285 286 284 282 283 285 287 291 294 295 294 293 293 295 297 298 300 300 295 290 288 284 281 281 285 287 287 285 284 282 280 278 276 278 283 292 297 299 292
nan nan nan nan nan nan nan nan nan nan 226 224 224 nan 224 219 216 215 215 216 216 218 225 229 229 230 230 235 236 232 227 229 241 251 257 259 261 263 263 257 260 272 277 277 280 282 284 286 288 289 287 284 284 287 290 290 291 292 292 294 293 293 294 294 294 294 292 289 290 292 290 290 289 290 290 287 283 280 280 282 285 291 296 296 289
nan nan nan nan nan nan nan nan nan nan nan nan nan 222 219 217 217 218 221 221 222 222 222 226 234 241 238 239 242 240 236 236 242 247 251 255 256 257 259 257 258 260 262 265 272 275 278 281 284 287 288 288 287 287 287 288 290 295 296 294 292 292 291 292 295 297 299 296 298 299 297 297 296 293 291 289 287 287 287 286 287 292 294 294 289
nan nan nan nan nan nan nan nan nan nan nan nan nan nan 218 216 217 220 222 225 227 227 228 230 229 234 239 234 235 241 241 237 239 247 250 255 260 265 260 261 263 266 269 271 273 275 275 277 278 280 283 285 287 287 286 285 288 292 294 295 294 293 292 293 294 297 300 303 304 304 301 298 295 291 289 288 290 290 289 290 290 292 295 295 291
nan nan nan nan nan nan nan nan nan nan nan nan nan nan nan nan 220 220 222 225 227 229 232 234 234 236 243 240 242 243 245 244 242 243 245 251 261 261 258 261 264 267 270 273 274 273 274 275 276 277 279 281 284 287 287 287 287 286 288 290 290 291 294 294 295 299 304 307 308 307 305 299 292 289 288 288 286 287 288 290 292 293 295 298 291
nan nan nan nan nan nan nan nan nan nan nan nan nan nan nan nan nan 224 224 226 227 231 233 235 237 237 236 236 240 239 240 241 244 245 246 249 252 254 255 257 261 265 269 272 275 276 277 276 276 278 278 279 281 284 286 287 286 285 284 285 287 288 292 292 298 301 302 303 305 303 300 296 291 287 287 287 287 286 287 289 292 293 293 294 291
nan nan nan nan nan nan nan nan nan nan nan nan nan nan nan nan nan nan nan 231 231 231 232 234 235 235 237 237 240 242 243 242 243 243 248 249 251 252 254 256 258 261 264 268 271 275 277 277 277 276 277 277 279 280 283 285 285 286 289 290 291 291 292 294 297 299 300 302 299 297 295 294 292 291 289 289 288 287 287 289 291 291 289 288 291
nan nan nan nan nan nan nan nan nan nan nan nan nan nan nan nan nan nan nan nan 230 233 234 233 231 231 234 236 239 242 241 242 243 243 246 250 251 252 254 255 256 259 262 265 268 272 276 277 277 278 278 279 278 277 275 277 282 289 290 291 291 292 291 289 291 292 293 293 291 291 294 296 294 292 292 290 288 284 285 286 289 289 285 283 285
nan nan nan nan nan nan nan nan nan nan nan nan nan nan nan nan nan nan nan nan nan nan 232 230 228 227 229 228 228 237 238 239 241 244 246 248 250 254 257 256 255 255 257 261 265 268 271 273 275 277 278 279 278 277 278 282 283 283 281 280 280 281 282 282 285 288 288 288 291 293 294 293 290 291 293 288 281 279 280 282 285 286 283 281 280
nan nan nan nan nan nan nan nan nan nan nan nan nan nan nan nan nan nan nan nan nan nan nan 232 231 230 229 226 225 226 234 237 239 240 242 245 248 251 255 257 258 258 259 260 262 265 267 269 271 273 274 276 278 281 282 283 285 283 282 282 282 281 281 284 287 288 290 288 288 289 290 289 288 287 286 282 281 281 281 281 281 282 282 280 277
nan nan nan nan nan nan nan nan nan nan nan nan nan nan nan nan nan nan nan nan nan nan nan nan nan 234 232 228 225 229 237 237 238 239 240 241 244 247 249 249 250 251 251 253 255 258 262 266 270 273 276 278 280 283 284 286 285 286 286 284 284 284 285 285 286 288 289 287 286 285 283 281 280 281 285 283 281 279 281 283 283 282 279 277 276
nan nan nan nan nan nan nan nan nan nan nan nan nan nan nan nan nan nan nan nan nan nan nan nan 235 236 234 231 231 234 237 238 241 243 243 244 245 247 248 250 251 252 254 255 257 258 261 263 265 267 268 268 269 271 273 278 282 284 285 284 285 287 285 285 285 286 286 286 286 282 277 274 274 277 281 282 282 280 280 283 284 282 277 273 273
nan nan nan nan nan nan nan nan nan nan nan nan nan nan nan nan nan nan nan nan nan nan nan nan 236 238 237 236 235 237 239 241 242 244 246 246 248 248 249 250 252 253 255 256 258 259 261 262 263 265 266 267 267 268 269 270 269 271 274 280 284 286 287 287 287 285 283 283 283 280 273 267 269 273 276 277 277 279 278 282 286 284 277 270 270
nan nan nan nan nan nan nan nan nan nan nan nan nan nan nan nan nan nan nan nan nan nan nan 234 237 239 241 240 239 240 242 244 245 246 248 249 250 250 251 252 253 254 255 255 256 258 259 261 263 264 266 267 267 268 269 268 268 268 270 270 275 281 284 284 284 285 286 287 287 284 278 271 270 271 272 274 276 278 277 278 281 282 277 274 274
nan nan nan nan nan nan nan nan nan nan nan nan nan nan nan nan nan nan nan nan nan nan 235 236 238 241 243 243 242 242 243 245 247 248 249 250 251 251 251 252 253 254 255 256 257 258 259 260 261 263 264 265 267 267 267 268 267 267 267 269 270 273 274 277 281 283 284 287 289 287 281 274 270 269 272 272 270 268 269 272 275 275 270 270 272
nan nan nan nan nan nan nan nan nan nan nan nan nan nan nan nan nan nan nan nan 239 239 239 239 240 242 244 245 245 244 244 244 245 247 249 250 250 250 250 250 251 253 254 256 257 258 259 260 261 262 263 263 264 265 266 266 268 267 267 268 270 272 276 278 280 283 285 285 284 285 284 279 274 272 273 274 271 269 270 271 271 270 270 270 270
nan nan nan nan nan nan nan nan nan nan nan nan nan nan nan nan nan nan nan nan 240 242 242 242 242 242 244 245 246 245 245 245 245 246 247 248 249 249 249 249 249 250 252 254 255 257 258 260 260 261 262 263 263 264 265 266 266 266 266 268 263 258 273 277 280 283 286 284 279 278 278 277 276 273 271 269 269 270 270 269 269 270 270 270 273
nan nan nan nan nan nan nan nan nan nan nan nan nan nan nan nan nan nan nan nan nan 244 245 245 245 244 244 245 247 247 247 247 247 246 246 247 247 248 249 249 249 250 252 253 255 257 258 259 260 261 262 262 263 265 266 266 266 267 267 265 257 257 261 270 274 273 274 276 278 276 275 275 276 274 270 268 268 269 269 269 271 272 270 271 275
nan nan nan nan nan nan nan nan nan nan nan nan nan nan nan nan nan nan nan nan nan nan 247 248 247 246 245 246 247 249 250 250 251 251 250 248 247 247 248 249 250 252 254 255 257 257 258 259 261 262 264 265 266 268 269 269 268 266 262 260 261 260 259 263 271 273 273 274 271 269 270 273 275 273 270 268 266 264 264 267 270 270 267 268 273